If you wish to contribute or participate in the discussions about articles you are invited to join SKYbrary as a registered user

 Actions

Arad International Airport

From SKYbrary Wiki

LRAR
Airport
ICAO: LRAR – IATA: ARW
Summary
Name Arad International Airport
Region
Territory Romania RO.gif
Location , Arad
Serving Arad
Elevation 107.29 m
352 ft
352 ft107.29 m
Type medium airport
Coordinates 46° 10' 35.58" N, 21° 15' 43.28" E
Runways
Designator Length Width Surface ROPS
9/27 2000 m6,561.68 ft
45 m147.638 ft
CON /


METAR
Observation LRAR 231830Z 28006KT 9999 FEW036 BKN047 14/12 Q1013
Station Arad
Date/Time 23 May 2019 18:30:00
Wind direction 280°
Wind speed 06 kts
Lowest cloud amount few clouds
Temperature 14°C
Dew point 12°C
Humidity 87%
QNH 1013 hPa
Weather condition n/a